Flag for Congo Dem.Rep. Weather past 2 weeks in Kinshasa, Congo Dem.Rep.

Now
75 °F

Thunderstorms. Passing clouds.


Feels Like: 75 °F
Forecast: 75 / 93 °F
Wind: 5 mph from Southwest

Location: Brazzaville / Maya-Maya

Current Time: Jan 31, 2015 at 10:17:32 PM

Latest Report: Jan 31, 2015 at 9:00 PM


Visibility: N/A

Pressure: 29.95 "Hg

Humidity: 83%

Dew point: 70 °F

Location of KinshasaLocation

Historic Weather in Kinshasa — Graph

°F

Kinshasa temperature yesterday

Maximum temperature yesterday: 91 °F (at 2:00 PM)
Minimum temperature yesterday: 73 °F (at 1:00 AM)
Average temperature yesterday: 81 °F

Past Weeks' High & Low Weather Summary

 TemperatureHumidityPressure
High91 °F (Jan 20, 3:00 PM)100% (Jan 29, 5:00 AM)30.04 "Hg (Jan 29, 5:00 AM)
Low68 °F (Jan 17, 3:00 AM)52% (Jan 20, 3:00 PM)29.77 "Hg (Jan 20, 5:00 PM)
Average79 °F79%29.91 "Hg
* Reported Jan 16 9:00 PM — Jan 31 9:00 PM, Kinshasa, Weather by CustomWeather, © 2014

Note: Actual official high and low records may vary slightly from our data, if they occured in-between our weather recording intervals... More about our weather records

Advertising

Kinshasa weather history for previous 24 hours

 ConditionsComfort  
Time TempWeatherWind HumidityBarometerVisibility
9:00 PM
Jan 31
75 °FThunderstorms. Passing clouds.5 mph83%29.95 "HgN/A
8:00 PM75 °FThunderstorms. Passing clouds.3 mph89%29.89 "HgN/A
7:00 PM75 °FThunderstorms. Passing clouds.6 mph89%29.86 "HgN/A
6:00 PM79 °FPassing clouds.6 mph84%29.86 "HgN/A
5:00 PM81 °FPassing clouds.9 mph79%29.86 "HgN/A
4:00 PM84 °FPassing clouds.6 mph70%29.83 "HgN/A
3:00 PM82 °FPassing clouds.5 mph74%29.86 "HgN/A
2:00 PM77 °FScattered clouds.7 mph83%29.89 "HgN/A
1:55 PM77 °FScattered clouds.7 mph83%29.89 "HgN/A
1:00 PM77 °FThunderstorms. Passing clouds.3 mph79%29.92 "HgN/A
12:04 PM75 °FThunderstorms. Partly sunny.9 mph78%29.95 "Hg2 mi
11:59 AM75 °FThunderstorms. Partly sunny.10 mph78%29.95 "Hg2 mi
11:00 AM84 °FPartly sunny.6 mph66%29.98 "HgN/A
10:00 AM82 °FScattered clouds.7 mph70%29.98 "HgN/A
9:00 AM81 °FScattered clouds.9 mph74%29.98 "HgN/A
8:00 AM79 °FScattered clouds.8 mph84%29.98 "HgN/A
7:00 AM79 °FPartly sunny.5 mph84%29.95 "Hg5 mi
6:00 AM77 °FPassing clouds.3 mph89%29.95 "Hg5 mi
5:00 AM77 °FPassing clouds.5 mph89%29.92 "Hg5 mi
4:00 AM77 °FPassing clouds.3 mph89%29.89 "Hg5 mi
3:00 AM79 °FPassing clouds.2 mph84%29.89 "Hg5 mi
2:00 AM79 °FPassing clouds.2 mph89%29.89 "Hg5 mi
1:47 AM79 °FPassing clouds.2 mph89%29.89 "Hg5 mi
1:00 AM79 °FThunderstorms. Passing clouds.3 mph84%29.89 "Hg5 mi
12:00 AM79 °FThunderstorms. Passing clouds.2 mph84%29.89 "Hg5 mi
11:00 PM
Jan 30
81 °FThunderstorms. Passing clouds.2 mph79%29.89 "Hg5 mi
10:00 PM82 °FPassing clouds.6 mph74%29.89 "Hg5 mi
Weather by CustomWeather, © 2014

See weather overviewHow to use our weather pages